Back to catalog

QIANFAN-39

AliveCommunicationsPO
NORAD 62240·PAYLOAD·🇨🇳 China

Launched Dec 5, 2024 from Taiyuan Satellite Launch Center

Loading…

Next Passes (next 24 hours)

TLE

FreshSource: Space-Track

Epoch: Sep 14, 2026, 13:50 UTC

1 62240U 24232D   26257.57672003  .00000365  00000-0  14836-3 0  9998
2 62240  89.0140   5.9131 0014028 251.1517 108.8155 14.25558410140686

Track QIANFAN-39 in real time with AllMySat

Download on the App Store